Williston, ND

1:35 AM CDT on March 25, 2017 (GMT -0500)
Sloulin International

Weather History for KISN - April, 2014

Change the Weather History Date:

Sunday, April 13, 2014

  Actual Average Record
Temperature  
Mean Temperature 32 °F 42 °F  
Max Temperature 42 °F 56 °F 84 °F (1915)
Min Temperature 22 °F 29 °F 9 °F (1909)
Degree Days  
Heating Degree Days 33 23  
Month to date heating degree days 350 328  
Since 1 July heating degree days 8502 8203  
Cooling Degree Days 0 0  
Month to date cooling degree days 0 0  
Year to date cooling degree days 0 0  
Moisture  
Dew Point 16 °F    
Average Humidity 60    
Maximum Humidity 92    
Minimum Humidity 28    
Precipitation  
Precipitation T in 0.03 in 1.71 in (1986)
Month to date precipitation 0.18 0.37  
Year to date precipitation 0.94 2.06  
Sea Level Pressure  
Sea Level Pressure 30.29 in    
Wind  
Wind Speed 13 mph (NNW)    
Max Wind Speed 25 mph    
Max Gust Speed 30 mph    
Visibility 10 miles    
Events Snow    
T = Trace of Precipitation, MM = Missing Value Source: NWS Daily Summary

Daily Weather History Graph

Daily Weather History Graph

Search for Another Location

Airport or City:

Trip Planner

Search our weather history database for the weather conditions in past years. The results will help you decide how hot, cold, wet, or windy it might be!

Date:

Astronomy

Apr. 13, 2014 Rise Set
Actual Time 7:08 AM CDT 8:42 PM CDT
Civil Twilight 6:36 AM CDT 9:15 PM CDT
Nautical Twilight 5:56 AM CDT 9:54 PM CDT
Astronomical Twilight 5:13 AM CDT 10:38 PM CDT
Moon 7:17 PM CDT (4/13) 6:16 AM CDT (4/13)
Length of Visible Light 14h 39m
Length of Day
13h 33m
Waxing Gibbous, 97% of the Moon is Illuminated
Apr 13
Waxing Gibbous
Apr 15
Full
Apr 22
Last Quarter
Apr 29
New
May 6
First Quarter

Hourly Weather History & Observations

Time (CDT) Temp. Windchill Dew Point Humidity Pressure Visibility Wind Dir Wind Speed Gust Speed Precip Events Conditions
12:52 AM 26.1 °F 13.6 °F 16.0 °F 66% 30.24 in 10.0 mi NNW 16.1 mph 25.3 mph N/A   Overcast
1:52 AM 25.0 °F 11.7 °F 15.1 °F 66% 30.25 in 10.0 mi North 17.3 mph 26.5 mph N/A   Overcast
2:52 AM 24.1 °F 11.0 °F 14.0 °F 65% 30.25 in 10.0 mi North 16.1 mph 26.5 mph N/A   Overcast
3:52 AM 24.1 °F 10.1 °F 14.0 °F 65% 30.28 in 10.0 mi North 18.4 mph 23.0 mph N/A   Overcast
4:52 AM 24.1 °F 12.0 °F 12.9 °F 62% 30.30 in 10.0 mi North 13.8 mph - N/A   Overcast
5:52 AM 24.1 °F 12.5 °F 14.0 °F 65% 30.30 in 10.0 mi North 12.7 mph 23.0 mph N/A   Overcast
6:52 AM 23.0 °F 11.1 °F 12.9 °F 65% 30.31 in 10.0 mi NNW 12.7 mph - N/A   Mostly Cloudy
7:07 AM 23.0 °F 12.4 °F 12.9 °F 65% 30.22 in 10.0 mi NNW 10.4 mph - N/A   Scattered Clouds
7:52 AM 21.9 °F 14.5 °F 14.0 °F 72% 30.34 in 10.0 mi NW 5.8 mph - N/A   Clear
8:52 AM 26.1 °F 15.6 °F 16.0 °F 66% 30.35 in 10.0 mi North 11.5 mph - N/A   Clear
9:52 AM 28.9 °F 18.2 °F 14.0 °F 54% 30.37 in 10.0 mi North 13.8 mph - N/A   Partly Cloudy
10:52 AM 30.9 °F 19.8 °F 12.9 °F 47% 30.38 in 10.0 mi NNW 16.1 mph - N/A   Partly Cloudy
11:52 AM 34.0 °F 23.8 °F 12.9 °F 42% 30.36 in 10.0 mi North 16.1 mph - N/A   Mostly Cloudy
12:52 PM 34.0 °F 24.2 °F 12.0 °F 40% 30.36 in 10.0 mi NNW 15.0 mph 23.0 mph N/A   Mostly Cloudy
1:52 PM 36.0 °F 26.7 °F 12.0 °F 37% 30.35 in 10.0 mi NNW 15.0 mph 23.0 mph N/A   Overcast
2:52 PM 36.0 °F 26.7 °F 12.0 °F 37% 30.34 in 10.0 mi North 15.0 mph - N/A   Overcast
3:52 PM 39.2 °F 31.6 °F 12.2 °F 33% 30.25 in 10.0 mi NNW 12.7 mph - N/A   Overcast
4:52 PM 41.0 °F 32.2 °F 10.9 °F 29% 30.30 in 10.0 mi North 18.4 mph 29.9 mph N/A   Mostly Cloudy
5:52 PM 39.0 °F 31.0 °F 12.9 °F 34% 30.31 in 10.0 mi North 13.8 mph 23.0 mph N/A   Mostly Cloudy
6:52 PM 39.2 °F 34.2 °F 10.4 °F 31% 30.22 in 10.0 mi NW 6.9 mph - N/A   Mostly Cloudy
7:52 PM 37.9 °F - 10.9 °F 33% 30.28 in 10.0 mi Calm Calm - N/A   Scattered Clouds
8:52 PM 35.1 °F 26.4 °F 17.1 °F 48% 30.29 in 9.0 mi NW 12.7 mph 26.5 mph N/A   Overcast
9:52 PM 35.1 °F 27.9 °F 17.1 °F 48% 30.29 in 10.0 mi NNW 9.2 mph - N/A   Overcast
10:49 PM 32.0 °F 23.0 °F 24.8 °F 75% 30.23 in 10.0 mi WNW 11.5 mph - 0.00 in   Overcast
10:52 PM 32.0 °F 22.5 °F 24.1 °F 73% 30.30 in 10.0 mi WNW 12.7 mph - 0.00 in   Overcast
11:03 PM 30.0 °F 22.4 °F 26.1 °F 85% 30.22 in 2.0 mi North 8.1 mph - 0.00 in Snow Light Snow
11:14 PM 28.0 °F 21.7 °F 25.0 °F 88% 30.22 in 8.0 mi North 5.8 mph - 0.00 in Snow Light Snow
11:22 PM 28.0 °F 21.7 °F 25.0 °F 88% 30.22 in 10.0 mi North 5.8 mph - 0.00 in   Mostly Cloudy
11:52 PM 26.1 °F 19.4 °F 24.1 °F 92% 30.31 in 10.0 mi NNW 5.8 mph - 0.00 in   Mostly Cloudy
11:58 PM 26.1 °F 18.4 °F 24.1 °F 92% 30.23 in 10.0 mi NNW 6.9 mph - N/A   Mostly Cloudy